Location: Goheenville
(40.9070°N, 79.3720°W)
Time: 15:10:50
(UTC-04:00)

Daily predictions for brighter satellites

Satellite Brightness Start Highest point End
(mag) Time Altitude Azimuth Time Altitude Azimuth Time Altitude Azimuth
Cosmos 1315 Rocket 3.2 20:31:23 10° N 20:35:20 46° ENE 20:39:12 10° SSE
Cosmos 2360 Rocket 4.0 20:37:28 10° E 20:37:58 10° E 20:38:28 10° E
Cosmos 1980 Rocket 2.2 20:32:20 10° SSW 20:38:00 85° ESE 20:43:44 10° NNE
USA 234 3.6 20:36:19 10° ESE 20:42:39 55° NE 20:49:00 10° NW
OTV 4 2.9 20:45:04 10° SW 20:46:29 13° SSW 20:47:54 10° S
Intercosmos 25 Rocket 4.3 20:44:20 10° SE 20:46:55 23° E 20:49:53 10° NNE
Cosmos 1825 3.3 20:45:51 10° NNE 20:49:08 27° ENE 20:52:20 10° SE
CZ-2D R/B 3.3 20:46:02 10° SSE 20:49:56 89° ENE 20:53:51 10° NNW
Nadezhda 4 Rocket 4.3 20:47:39 10° N 20:53:55 74° W 21:00:11 10° S
SL-16 R/B 2.6 20:49:17 10° S 20:54:32 40° ESE 20:59:48 10° NE
ATLAS 5 CENTAUR R/B 3.7 20:56:27 10° NNW 21:01:18 26° NE 21:06:11 11° E
Cosmos 1862 4.4 20:58:31 10° NNE 21:02:01 28° ENE 21:04:34 15° SE
Cosmos 1634 Rocket 4.0 20:55:46 10° S 21:02:01 72° E 21:08:19 10° NNE
Cosmos 1092 Rocket 4.1 20:57:18 10° N 21:03:41 87° W 21:10:01 10° S
Cosmos 1707 Rocket 3.7 20:59:43 10° S 21:04:09 79° W 21:08:36 10° N
Helios 1B rocket 2.4 21:00:28 10° NNE 21:04:32 58° ESE 21:08:33 10° S
Lacrosse 4 Rocket 2.0 21:01:28 10° NNW 21:05:37 44° ENE 21:08:46 16° SE
ERS-1 Rocket 4.0 21:02:09 14° ESE 21:05:38 28° ENE 21:09:54 10° N
USA 186 1.6 21:03:24 10° S 21:06:02 68° W 21:08:54 10° NNW
Cosmos 1655 Rocket 4.3 21:03:24 10° N 21:09:37 50° ENE 21:15:37 11° SSE
ALOS 4.5 21:06:05 10° SSW 21:09:58 26° W 21:13:52 10° NW
ERBS 2.3 21:07:00 10° NW 21:10:28 77° NE 21:12:44 20° SE
Cosmos 1733 Rocket 3.6 21:06:57 10° N 21:11:08 39° ENE 21:14:14 16° SE
SAR-Lupe-4 3.5 21:08:04 10° SSE 21:11:39 78° ENE 21:15:15 10° N
Meteor 2-20 Rocket 4.4 21:05:37 10° N 21:11:43 67° E 21:17:49 10° SSE
Cosmos 1939 Rocket 3.1 21:08:26 13° SSE 21:11:52 51° ENE 21:15:46 10° N
CENTAUR R/B 4.2 21:07:15 10° WSW 21:12:55 37° NW 21:19:19 10° NNE
Cosmos 1486 Rocket 4.4 21:07:45 10° NNW 21:12:57 66° WSW 21:18:08 10° S
Cosmos 1862 Rocket 4.0 21:13:08 10° SSE 21:17:18 40° E 21:21:31 10° NNE
SeaSat 1 4.0 21:17:14 14° E 21:19:58 22° NE 21:23:43 10° N
Cosmos 1992 Rocket 4.1 21:19:02 10° S 21:24:05 52° ESE 21:29:10 10° NNE
Cosmos 1408 2.5 21:20:59 10° N 21:24:42 81° E 21:27:28 17° S
ORS 1 (USA 231) 4.4 21:21:59 10° W 21:25:04 77° S 21:26:23 31° E
Atlas Centaur 2 3.7 21:21:57 10° SW 21:27:57 28° SSE 21:31:32 21° ESE
SAR-Lupe-1 4.2 21:26:08 14° S 21:29:09 73° WSW 21:32:44 10° NNW
Abrixas rocket 3.9 21:29:26 10° W 21:32:28 33° NNW 21:35:29 10° NE
Cosmos 2242 Rocket 3.8 21:31:12 10° SSW 21:35:43 75° W 21:40:13 10° N
Helios 1A 4.0 21:37:03 10° S 21:41:06 45° W 21:45:12 10° NNW
Cosmos 2279 Rocket 4.0 21:37:01 10° S 21:43:16 88° E 21:49:32 10° N
Cosmos 1503 Rocket 4.2 21:39:06 10° NNW 21:44:20 68° WSW 21:48:10 18° S
Cosmos 1354 Rocket 4.4 21:43:05 10° NNW 21:48:18 62° WSW 21:52:09 18° S
MetOp-A 4.4 21:47:17 30° SE 21:49:40 52° ENE 21:54:51 10° N
Cosmos 1867 4.3 21:44:51 10° NNW 21:49:57 39° NE 21:52:05 28° E
Resurs 01 Rocket 4.4 21:50:11 10° SW 21:52:56 16° W 21:55:41 10° NW
H-2A R/B 3.2 21:52:49 24° E 21:53:43 25° ENE 21:57:43 10° NNE
OAO 3 Rocket 3.7 21:51:02 10° WSW 21:55:41 42° S 21:56:39 38° SSE
YAOGAN 6 2.7 21:56:56 40° S 21:58:08 73° W 22:01:47 10° NNW
SPOT 5 3.1 22:04:10 43° ESE 22:05:17 53° ENE 22:09:52 10° N
Cosmos 968 Rocket 3.6 22:00:22 10° NNW 22:05:29 57° ENE 22:06:50 43° ESE
Cosmos 2263 Rocket 2.1 22:00:26 10° NNW 22:06:01 82° WSW 22:08:25 36° SSE
COSMOS 2428 3.8 22:10:12 27° E 22:10:12 27° E 22:13:46 10° NE
Meteor 2-10 Rocket 3.7 22:05:36 19° S 22:09:55 84° E 22:15:44 10° N
Envisat 4.4 22:06:05 10° SSW 22:10:39 34° W 22:15:15 10° NNW
Cosmos 2322 Rocket 3.2 22:05:22 10° SW 22:10:45 47° WNW 22:16:11 10° NNE
Cosmos 1933 4.3 22:11:30 14° SSW 22:14:41 45° W 22:18:34 10° N
Sich 1 Rocket 3.5 22:11:11 10° N 22:15:41 87° E 22:16:31 59° SSE
Cosmos 2360 Rocket 2.1 22:15:49 12° SSW 22:20:59 84° ESE 22:26:42 10° NNE
H-2A R/B 3.5 22:23:59 25° NE 22:23:59 25° NE 22:26:56 10° N
USA 234 3.9 22:22:54 30° S 22:25:43 45° SW 22:31:58 10° WNW
Cosmos 1908 Rocket 3.7 22:23:55 10° NNW 22:28:13 67° W 22:28:49 58° SW
Cosmos 2322 3.6 22:25:27 26° SSW 22:28:51 83° ESE 22:34:35 10° NNE
Meteor 1-20 Rocket 4.3 22:24:08 10° N 22:29:36 54° ENE 22:30:09 52° E
NOAA 11 4.3 22:28:03 41° S 22:30:00 71° WSW 22:35:30 10° NNW
USA 245 4.2 22:30:43 49° S 22:32:25 87° W 22:37:40 10° NNW
SL-16 R/B 4.1 22:33:47 10° WSW 22:38:43 30° NW 22:43:41 10° N
SPOT 1/Viking Rocket 3.4 22:40:22 73° SE 22:40:51 83° ENE 22:46:07 10° NNW
Cosmos 1782 Rocket 3.6 22:37:54 10° N 22:41:59 76° NW 22:41:59 76° NW
Lacrosse 4 Rocket 3.7 22:41:04 10° WNW 22:44:00 18° WSW 22:45:08 16° SW
ERS-1 Rocket 4.3 22:42:09 24° SW 22:44:18 33° W 22:48:50 10° NNW
Okean 2 Rocket 3.3 22:41:03 10° N 22:44:59 64° NNE 22:44:59 64° NNE
ATLAS 5 CENTAUR R/B 2.5 22:40:30 10° NW 22:46:32 73° WSW 22:47:45 58° S
Cosmos 2333 Rocket 3.9 22:52:13 19° ENE 22:52:13 19° ENE 22:54:14 10° NE
Cosmos 1782 4.4 22:53:34 29° NNE 22:53:34 29° NNE 22:55:39 10° NNE
Landsat 7 4.0 22:54:28 64° NNE 22:54:28 64° NNE 22:58:38 10° N
ARGOS 3.5 22:52:58 50° SW 22:53:55 57° W 22:59:13 10° NNW
Milstar 3 4.2 22:49:15 10° WSW 22:53:09 20° SSW 22:53:09 20° SSW
Cosmos 2237 Rocket 4.3 22:59:46 14° ENE 22:59:46 14° ENE 23:00:52 10° NE
SeaSat 1 2.8 22:57:02 55° WSW 22:57:08 55° WSW 23:02:00 10° NW
Cosmos 2278 Rocket 3.5 22:55:14 10° N 23:00:01 27° NE 23:00:07 27° ENE
Cosmos 1777 Rocket 4.1 23:01:45 10° NNW 23:06:40 76° NW 23:06:40 76° NW
Okean 1-7 4.0 23:07:56 46° WNW 23:07:56 46° WNW 23:11:51 10° N
NOSS 3-1 (C) 4.5 23:11:31 32° ENE 23:11:31 32° ENE 23:15:04 10° NE
Terra 2.4 23:10:04 52° N 23:10:04 52° N 23:13:46 10° N
Cosmos 1844 Rocket 2.7 23:03:52 10° NNW 23:09:04 69° NNE 23:09:04 69° NNE
Meteor 1-27 Rocket 4.5 23:12:59 42° NE 23:12:59 42° NE 23:17:00 10° NNE
USA 229 DEB 3.9 23:05:28 10° SW 23:12:16 69° NW 23:19:13 10° NNE
USA 229 3.9 23:05:33 10° SW 23:12:20 69° NW 23:19:18 10° NNE
Atlas Centaur 2 3.9 23:09:41 10° WSW 23:14:12 32° SW 23:14:12 32° SW
SL-19 R/B 4.3 23:18:19 10° NNE 23:24:12 82° N 23:24:12 82° N
Cosmos 2219 Rocket 3.0 23:28:38 43° NE 23:28:38 43° NE 23:32:22 10° NNE
CZ-4C R/B 3.4 23:24:09 10° NNW 23:30:55 46° NE 23:32:09 43° ENE
H-2A R/B 3.1 23:33:27 37° W 23:33:27 37° W 23:37:34 10° NNW
Meteor 1-11 Rocket 4.1 23:28:43 10° N 23:33:08 57° N 23:33:08 57° N
ASTEX 1 4.4 23:43:30 44° NW 23:43:30 44° NW 23:47:13 10° NNW
Cosmos 1553 Rocket 4.1 23:48:00 71° NW 23:48:00 71° NW 23:53:50 10° N
H-2A R/B 4.4 23:21:34 10° W 23:51:40 37° SW 23:51:40 37° SW
COSMOS 2428 3.8 23:52:07 37° W 23:53:00 40° WNW 23:58:22 10° N
